Waarnemingen

Advertentie
Mijn weer
Palma De Mallorca/Son San Ju, Spanje (8306): temperatuur & dauwpunt: 11.10.2018 23:00:00 - 17.10.2018 23:00:00 (CEST)Palma De Mallorca/Son San Ju, Spanje (8306): windsnelheid: 11.10.2018 23:00:00 - 17.10.2018 23:00:00 (CEST)Palma De Mallorca/Son San Ju, Spanje (8306): windrichting: 11.10.2018 23:00:00 - 17.10.2018 23:00:00 (CEST)Palma De Mallorca/Son San Ju, Spanje (8306): luchtdruk: 11.10.2018 23:00:00 - 17.10.2018 23:00:00 (CEST)Palma De Mallorca/Son San Ju, Spanje (8306): zicht: 11.10.2018 23:00:00 - 17.10.2018 23:00:00 (CEST)
Datum & Tijd tt [°C] td [°C] ff [km/u] ff [kn] dd ppp [hPa] vv [km]
17.10.2018 23:00:00 17,5 15,1 9 5 NNO 1012,1 10
17.10.2018 22:00:00 18,4 15,3 5 3 NO 1011,9 10
17.10.2018 21:00:00 19,1 15,4 9 5 NO 1011,5 10
17.10.2018 20:00:00 19,4 16,1 9 5 O 1011,4 25
17.10.2018 19:00:00 20,8 15,8 11 6 ONO 1010,6 10
17.10.2018 18:00:00 22,2 16,0 16 9 ONO 1010,8 10
17.10.2018 17:00:00 22,3 15,6 15 8 ONO 1011,3 28
17.10.2018 16:00:00 24,0 14,4 18 10 NO 1011,2 10
17.10.2018 15:00:00 23,4 15,7 21 11 ONO 1011,9 10
17.10.2018 14:00:00 24,1 15,0 13 7 O 1012,4 10
17.10.2018 13:00:00 24,8 15,6 4 2 - 1013,0 10
17.10.2018 12:00:00 23,8 14,2 0 0 N 1013,4 10
17.10.2018 11:00:00 22,7 14,7 2 1 - 1014,0 10
17.10.2018 10:00:00 18,0 15,0 0 0 N 1014,3 10
17.10.2018 09:00:00 14,2 13,6 0 0 N 1014,1 10
17.10.2018 08:00:00 12,3 11,8 5 3 NO 1014,2 10
17.10.2018 07:00:00 12,3 11,8 2 1 - 1014,2 10
17.10.2018 06:00:00 12,9 12,4 0 0 N 1014,0 10
17.10.2018 05:00:00 13,4 12,8 0 0 N 1014,3 10
17.10.2018 04:00:00 14,3 13,7 2 1 NO 1014,5 10
17.10.2018 03:00:00 14,5 13,7 0 0 N 1015,2 10
17.10.2018 02:00:00 14,8 14,0 0 0 N 1015,5 10
17.10.2018 01:00:00 15,4 14,3 5 3 NO 1015,7 10
17.10.2018 00:00:00 16,0 14,9 5 3 NO 1015,9 10
16.10.2018 23:00:00 16,5 15,5 8 4 N 1016,1 10
16.10.2018 22:00:00 17,2 16,1 5 3 ONO 1015,8 10
16.10.2018 21:00:00 17,3 15,8 8 4 NNO 1015,5 10
16.10.2018 20:00:00 18,0 15,8 0 0 N 1015,5 10
16.10.2018 19:00:00 18,9 16,1 5 3 NNO 1014,9 10
16.10.2018 18:00:00 20,4 15,8 8 4 ONO 1014,6 10
16.10.2018 17:00:00 20,0 16,9 11 6 NNO 1014,5 9
16.10.2018 16:00:00 24,6 12,5 11 6 W 1013,9 10
16.10.2018 15:00:00 23,2 13,1 11 6 WZW 1013,9 10
16.10.2018 14:00:00 24,4 12,7 13 7 ZW 1014,2 10
16.10.2018 13:00:00 22,8 13,6 9 5 NO 1014,3 10
16.10.2018 12:00:00 22,2 13,8 15 8 ONO 1014,2 10
16.10.2018 11:00:00 20,6 14,4 9 5 ONO 1014,2 10
16.10.2018 10:00:00 16,6 13,6 9 5 ONO 1014,0 10
16.10.2018 09:00:00 13,8 12,5 5 3 ONO 1013,7 10
16.10.2018 08:00:00 12,2 11,3 5 3 NO 1013,0 10
16.10.2018 07:00:00 12,8 11,7 9 5 NNO 1012,7 10
16.10.2018 06:00:00 12,9 12,0 8 4 NO 1012,3 10
16.10.2018 05:00:00 12,8 11,7 9 5 NNO 1011,7 10
16.10.2018 04:00:00 12,9 11,8 5 3 NO 1012,0 10
16.10.2018 03:00:00 13,5 12,1 9 5 NO 1012,4 10
16.10.2018 02:00:00 13,4 12,2 8 4 NO 1012,3 10
16.10.2018 01:00:00 13,6 12,4 5 3 NNO 1012,3 10
16.10.2018 00:00:00 14,1 12,7 5 3 N 1012,2 10
15.10.2018 23:00:00 14,9 12,6 5 3 NO 1012,0 10
15.10.2018 22:00:00 16,0 12,7 5 3 ONO 1011,8 10
15.10.2018 21:00:00 18,7 12,0 11 6 WZW 1011,1 10
15.10.2018 20:00:00 19,6 12,6 5 3 Z 1010,8 10
15.10.2018 19:00:00 20,3 12,3 5 3 ZZW 1010,1 10
15.10.2018 18:00:00 20,9 12,3 11 6 WZW 1009,6 10
15.10.2018 17:00:00 22,0 13,5 15 8 ZW 1009,3 25
15.10.2018 16:00:00 20,8 14,6 9 5 ZW 1009,0 10
15.10.2018 15:00:00 21,0 14,4 13 7 W 1008,9 10
15.10.2018 14:00:00 19,1 13,9 16 9 NW 1008,9 10
15.10.2018 13:00:00 18,2 14,5 18 10 W 1009,0 8
15.10.2018 12:00:00 18,3 13,6 16 9 NW 1008,9 10
15.10.2018 11:00:00 18,1 15,2 22 12 WZW 1008,3 4,0
15.10.2018 10:00:00 18,0 15,0 26 14 W 1007,5 9
15.10.2018 09:00:00 20,2 12,1 31 17 ZW 1006,5 10
15.10.2018 08:00:00 19,6 11,4 37 20 WZW 1005,9 25
15.10.2018 07:00:00 19,7 11,7 28 15 WZW 1005,9 10
15.10.2018 06:00:00 19,5 12,0 26 14 WZW 1005,6 10
15.10.2018 05:00:00 20,7 12,7 21 11 ZW 1005,6 10
15.10.2018 04:00:00 21,0 12,9 9 5 Z 1005,6 10
15.10.2018 03:00:00 20,3 14,0 15 8 ZZO 1006,0 10
15.10.2018 02:00:00 19,3 17,3 13 7 ZZO 1006,2 20
15.10.2018 01:00:00 20,2 17,4 13 7 ZW 1006,0 10
15.10.2018 00:00:00 22,8 20,1 26 14 ZZO 1005,8 10
14.10.2018 23:00:00 22,1 20,0 22 12 ZZO 1005,6 10
14.10.2018 22:00:00 21,9 20,0 28 15 ZO 1006,3 10
14.10.2018 21:00:00 22,1 19,6 21 11 ZO 1006,8 10
14.10.2018 20:00:00 22,9 18,7 13 7 ZZO 1008,5 10
14.10.2018 19:00:00 23,4 18,1 11 6 OZO 1008,1 10
14.10.2018 18:00:00 23,9 17,5 15 8 ZO 1008,0 10
14.10.2018 17:00:00 25,3 17,2 29 16 OZO 1008,1 25
14.10.2018 16:00:00 25,7 17,4 18 10 ZO 1008,6 10
14.10.2018 15:00:00 26,2 17,5 18 10 OZO 1009,2 10
14.10.2018 14:00:00 26,3 16,2 26 14 ZO 1009,9 25
14.10.2018 13:00:00 26,1 17,2 16 9 ZO 1011,2 10
14.10.2018 12:00:00 25,6 17,8 18 10 ZO 1011,9 10
14.10.2018 11:00:00 23,7 18,8 13 7 ONO 1012,4 10
14.10.2018 10:00:00 21,7 19,3 9 5 ONO 1012,7 10
14.10.2018 09:00:00 17,9 17,3 9 5 ONO 1012,8 10
14.10.2018 08:00:00 17,0 16,4 5 3 ONO 1012,9 10
14.10.2018 07:00:00 17,0 16,5 9 5 ONO 1013,3 10
14.10.2018 06:00:00 16,7 16,1 9 5 ONO 1013,1 10
14.10.2018 05:00:00 16,8 16,0 8 4 O 1013,7 10
14.10.2018 04:00:00 17,3 16,7 8 4 ONO 1014,6 10
14.10.2018 03:00:00 17,4 16,6 8 4 O 1015,1 10
14.10.2018 02:00:00 18,1 17,1 8 4 O 1015,8 10
14.10.2018 01:00:00 18,6 17,4 5 3 ONO 1016,1 10
14.10.2018 00:00:00 18,8 17,5 9 5 ONO 1016,6 10
13.10.2018 23:00:00 19,4 17,7 5 3 ONO 1016,9 22
13.10.2018 22:00:00 20,6 17,9 8 4 ONO 1017,1 10
13.10.2018 21:00:00 22,0 18,2 8 4 O 1017,1 10
13.10.2018 20:00:00 22,6 18,2 5 3 ZO 1017,2 10
13.10.2018 19:00:00 23,8 17,8 13 7 ZZO 1017,1 10
13.10.2018 18:00:00 25,5 18,7 16 9 Z 1017,1 10
13.10.2018 17:00:00 25,0 19,4 21 11 WZW 1017,4 30
13.10.2018 16:00:00 25,6 19,5 15 8 WZW 1017,9 10
13.10.2018 15:00:00 25,7 19,5 11 6 WZW 1018,6 10
13.10.2018 14:00:00 26,0 19,1 11 6 WZW 1019,5 10
13.10.2018 13:00:00 26,4 17,1 4 2 OZO 1020,2 10
13.10.2018 12:00:00 25,4 18,3 4 2 ONO 1020,8 10
13.10.2018 11:00:00 24,1 19,6 0 0 N 1021,1 25
13.10.2018 10:00:00 20,1 19,4 8 4 NNO 1020,9 10
13.10.2018 09:00:00 16,9 16,6 2 1 NNO 1020,8 8
13.10.2018 08:00:00 15,9 15,7 0 0 N 1020,7 5
13.10.2018 07:00:00 16,3 16,1 5 3 N 1020,8 3,5
13.10.2018 06:00:00 16,4 16,2 4 2 ONO 1020,8 2,0
13.10.2018 05:00:00 17,4 17,1 4 2 - 1021,1 0,8
13.10.2018 04:00:00 17,7 17,4 4 2 O 1021,5 0,2
13.10.2018 03:00:00 18,3 17,9 4 2 NO 1022,2 0,3
13.10.2018 02:00:00 18,6 18,1 4 2 ONO 1022,2 0,6
13.10.2018 01:00:00 17,9 17,4 4 2 ONO 1022,5 10
13.10.2018 00:00:00 18,6 18,0 4 2 - 1022,6 10
12.10.2018 23:00:00 19,2 18,4 4 2 OZO 1022,9 10
12.10.2018 22:00:00 19,8 18,8 4 2 ONO 1022,8 10
12.10.2018 21:00:00 20,9 19,6 4 2 O 1022,5 10
12.10.2018 20:00:00 22,6 20,3 4 2 ZZW 1022,3 10
12.10.2018 19:00:00 23,5 20,2 9 5 ZW 1021,9 10
12.10.2018 18:00:00 25,0 20,0 11 6 ZW 1021,8 10
12.10.2018 17:00:00 25,1 19,5 15 8 ZW 1022,0 10
12.10.2018 16:00:00 25,3 19,4 13 7 ZW 1022,1 10
12.10.2018 15:00:00 25,6 18,2 13 7 ZW 1022,3 10
12.10.2018 14:00:00 25,0 19,7 16 9 ZW 1022,7 30
12.10.2018 13:00:00 25,0 18,9 11 6 WZW 1022,9 10
12.10.2018 12:00:00 24,5 19,6 2 1 WNW 1022,9 10
12.10.2018 11:00:00 23,7 19,6 2 1 ZZW 1022,9 10
12.10.2018 10:00:00 19,2 16,8 4 2 NNW 1022,6 10
12.10.2018 09:00:00 16,8 15,8 4 2 - 1021,7 10
12.10.2018 08:00:00 16,3 15,8 4 2 WNW 1021,0 25
12.10.2018 07:00:00 15,3 15,0 8 4 NNO 1020,4 10
12.10.2018 06:00:00 14,8 14,3 4 2 NO 1019,7 10
12.10.2018 05:00:00 15,1 14,6 2 1 - 1019,3 10
12.10.2018 04:00:00 15,8 15,3 4 2 - 1019,4 10
12.10.2018 03:00:00 16,0 15,4 4 2 O 1019,6 10
12.10.2018 02:00:00 16,3 15,7 0 0 N 1019,0 10
12.10.2018 01:00:00 16,9 16,3 5 3 NNO 1018,7 10
12.10.2018 00:00:00 17,5 16,5 8 4 N 1018,6 10
11.10.2018 23:00:00 18,3 17,1 2 1 - 1018,4 10

tt = temperatuur
td = dauwpunt
ff = windsnelheid
dd = windrichting
ppp = luchtdruk
vv = zicht

Weerstations in de omgeving